Overview Statistics Trail Chart Weather Telemetry Raw packets
 

This is the latest recevied weather packets stored in our database for station/object KD0MAC. If no packets are shown the sender has not sent any weather packets the latest 10 day(s).

<< 87 88 89 90 91 92 93 >>
Time Temp. Humidity Pressure Rain* Wind** Luminosity Snow
1788118330 33.33° C 46% 1011.9 hPa 0 mm - 545 W/m² -
1788118029 33.33° C 46% 1012.2 hPa 0 mm - 544 W/m² -
1788117729 33.33° C 50% 1012.2 hPa 0 mm - 549 W/m² -
1788117429 33.33° C 48% 1012.2 hPa 0 mm - 551 W/m² -
1788117129 33.33° C 49% 1012.2 hPa 0 mm - 552 W/m² -
1788116830 32.78° C 49% 1012.2 hPa 0 mm - 554 W/m² -
1788116529 33.33° C 46% 1012.2 hPa 0 mm - 558 W/m² -
1788116229 32.78° C 46% 1012.2 hPa 0 mm - 559 W/m² -
1788115929 32.78° C 48% 1012.5 hPa 0 mm - 558 W/m² -
1788115629 32.22° C 50% 1012.5 hPa 0 mm - 559 W/m² -
1788115329 32.22° C 50% 1012.5 hPa 0 mm - 555 W/m² -
1788115029 32.22° C 50% 1012.5 hPa 0 mm - 553 W/m² -
1788114730 31.67° C 48% 1012.5 hPa 0 mm - 553 W/m² -
1788114430 31.67° C 54% 1012.5 hPa 0 mm - 555 W/m² -
1788114129 31.11° C 52% 1012.5 hPa 0 mm - 550 W/m² -
1788113829 30.56° C 51% 1012.5 hPa 0 mm - 549 W/m² -
1788113530 30.56° C 54% 1012.5 hPa 0 mm - 545 W/m² -
1788113230 30° C 55% 1012.5 hPa 0 mm - 544 W/m² -
1788112932 29.44° C 59% 1012.5 hPa 0 mm - 543 W/m² -
1788112630 29.44° C 59% 1012.5 hPa 0 mm - 272 W/m² -
1788112333 29.44° C 54% 1012.5 hPa 0 mm - 580 W/m² -
1788112030 29.44° C 56% 1012.2 hPa 0 mm - 581 W/m² -
1788111729 28.33° C 62% 1012.2 hPa 0 mm - 325 W/m² -
1788111429 28.89° C 58% 1012.2 hPa 0 mm - 467 W/m² -
1788111130 27.78° C 59% 1011.9 hPa 0 mm - 235 W/m² -

* Rain latest hour (hover to see other rain measurements)
** Current wind speed in m/s (hover to see current wind gust speed)